#timestamp,LO_Frequency,Hit 
1499626815.2,286046986.2,N
1499626835.0,286046986.0,N
1499626835.9,286046986.0,N
1499626855.8,286046988.3,N
1499626875.6,286046986.4,N
1499626895.4,286046986.6,N
1499626915.3,286046985.9,N
1499626935.1,286046985.3,N
1499626936.0,286046985.3,N
1499626955.8,286046986.0,N
1499626975.7,286046988.3,N
1499626995.5,286046987.5,N
1499627015.3,286046990.0,N
1499627035.1,286046987.0,N
1499627055.9,286046987.3,N
1499627075.7,286046985.3,N
1499627095.5,286046987.8,N
1499627115.4,286046987.2,N
1499627135.2,286046987.6,N
1499627155.0,286046985.8,N
1499627155.9,286046985.8,N
1499627175.8,286046987.9,N
1499627195.6,286046987.6,N
1499627215.4,286046987.0,N
1499627235.3,286046990.0,N
1499627255.1,286046988.6,N
1499627256.0,286046988.6,N
1499627275.8,286046989.1,N
1499627295.7,286046990.9,N
1499627315.5,286046991.4,N
1499627335.3,286046988.6,N
1499627355.1,286046988.7,N
1499627375.9,286046991.6,N
1499627395.7,286046991.1,N
1499627415.5,286046986.9,N
1499627435.4,286046989.5,N
1499627455.2,286046989.3,N
1499627475.0,286046988.7,N
1499627475.9,286046988.7,N
1499627495.8,286046988.7,N
1499627515.6,286046991.5,N
1499627535.4,286046991.6,N
1499627555.3,286046988.7,N
1499627575.1,286046989.8,N
1499627595.8,286046989.6,N
1499627615.7,286046987.0,N
1499627635.5,286046988.1,N
1499627655.3,286046988.3,N
1499627675.2,286046985.7,N
1499627695.9,286046987.7,N
1499627715.7,286046987.8,N
1499627735.6,286046985.6,N
1499627755.4,286046985.3,N
1499627775.2,286046987.2,N
1499627795.0,286046987.0,N
1499627796.0,286046987.0,N
1499627815.8,286046987.3,N
1499627835.6,286046989.7,N
1499627855.4,286046989.0,N
1499627875.3,286046992.8,N
1499627895.1,286046993.2,N
1499627915.8,286046989.0,N
1499627935.7,286046988.2,N
1499627955.5,286046987.9,N
1499627975.3,286046989.1,N
1499627995.2,286046991.1,N
1499628015.9,286046991.2,N
1499628035.7,286046990.4,N
1499628055.6,286046988.7,N
1499628075.4,286046988.8,N
1499628095.2,286046989.0,N
1499628115.0,286046988.8,N
1499628115.9,286046988.8,N
1499628135.8,286046989.7,N
1499628155.6,286046989.9,N
1499628175.4,286046988.8,N
1499628195.3,286046991.3,N
1499628215.1,286046989.4,N
1499628235.8,286046991.5,N
1499628255.7,286046990.6,N
1499628275.5,286046988.7,N
1499628295.3,286046989.2,N
1499628315.2,286046989.3,N
1499628335.9,286046987.3,N
1499628355.7,286046988.5,N
1499628375.6,286046990.2,N
1499628395.4,286046990.2,N
1499628415.2,286046991.1,N
1499628435.0,286046993.0,N
1499628436.0,286046993.0,N
1499628455.8,286046990.6,N
1499628475.6,286046988.8,N
1499628495.4,286046988.8,N
1499628515.3,286046987.3,N
1499628535.1,286046989.4,N
1499628555.8,286046989.3,N
1499628575.7,286046988.9,N
1499628595.5,286046990.5,N
1499628615.3,286046992.2,N
1499628635.2,286046993.6,N
1499628655.9,286046994.3,N
1499628675.7,286046994.6,N
1499628695.6,286046995.9,N
1499628715.4,286046992.4,N
1499628735.2,286046991.9,N
1499628755.0,286046992.6,N
1499628756.0,286046992.6,N
1499628775.8,286046992.8,N
1499628795.6,286046991.4,N
1499628815.4,286046988.9,N
1499628835.3,286046988.9,N
1499628855.1,286046989.4,N
1499628875.8,286046989.3,N
1499628895.7,286046991.4,N
1499628915.5,286046991.4,N
1499628935.3,286046991.4,N
1499628955.2,286046991.0,N
1499628975.9,286046991.6,N
1499628995.7,286046990.7,N
1499629015.6,286046992.0,N
1499629035.4,286046990.2,N
1499629055.2,286046991.5,N
1499629075.1,286046991.3,N
1499629076.0,286046991.3,N
1499629095.8,286046993.0,N
1499629115.6,286046992.9,N
1499629135.5,286046992.4,N
1499629155.3,286046992.6,N
1499629175.1,286046991.3,N
1499629195.8,286046990.4,N
1499629215.7,286046990.9,N
1499629235.5,286046990.9,N
1499629255.3,286046991.0,N
1499629275.2,286046991.9,N
1499629295.0,286046993.9,N
1499629295.9,286046993.9,N
1499629315.7,286046994.0,N
1499629335.6,286046994.2,N
1499629355.4,286046992.1,N
1499629375.2,286046993.9,N
1499629395.1,286046994.8,N
1499629396.0,286046994.8,N
1499629415.8,286046998.0,N
1499629435.6,286046993.4,N
1499629455.5,286046995.0,N
1499629475.3,286046997.7,N
1499629495.1,286046995.2,N
1499629515.9,286046997.0,N
1499629535.7,286046997.1,N
1499629555.5,286046995.8,N
1499629575.4,286046993.3,N
1499629595.2,286046995.6,N
1499629615.0,286046995.1,N
1499629615.9,286046995.1,N
1499629635.8,286046999.5,N
1499629655.6,286046997.1,N
1499629675.4,286046996.8,N
1499629695.3,286046997.8,N
1499629715.1,286046996.6,N
1499629716.0,286046996.6,N
1499629735.8,286046997.3,N
1499629755.7,286046996.7,N
1499629775.5,286046998.9,N
1499629795.3,286046996.9,N
1499629815.2,286046996.8,N
1499629835.9,286046998.7,N
1499629855.7,286046998.6,N
1499629875.5,286046998.2,N
1499629895.4,286046998.6,N
1499629915.2,286046998.2,N
1499629935.0,286046999.1,N
1499629935.9,286046999.1,N
1499629955.8,286046996.5,N
1499629975.6,286047000.8,N
1499629995.4,286047000.8,N
1499630015.3,286047001.0,N
1499630035.1,286047001.1,N
1499630036.0,286047001.1,N
1499630055.8,286046996.6,N
1499630075.7,286046999.4,N
1499630095.5,286046999.8,N
1499630115.3,286047002.5,N
1499630135.2,286047000.8,N
1499630155.9,286047000.9,N
1499630175.7,286047000.8,N
1499630195.6,286047000.4,N
1499630215.4,286046998.1,N
1499630235.2,286047002.4,N
1499630255.0,286047001.8,N
1499630256.0,286047001.8,N
1499630275.8,286047002.3,N
1499630295.6,286047002.3,N
1499630315.4,286047002.6,N
1499630335.3,286047001.9,N
1499630355.1,286047000.1,N
1499630375.8,286047001.0,N
1499630395.7,286047002.0,N
